This is the latest recevied weather packets stored in our database for station/object CX5ACA-13. If no packets are shown the sender has not sent any weather packets the latest 10 day(s).
| Time | Temp. | Humidity | Pressure | Rain* | Wind** | Luminosity | Snow |
|---|---|---|---|---|---|---|---|
| 1777896082 | 13.33° C | 75% | 1014.3 hPa | 0 mm | - | 48 W/m² | - |
| 1777895780 | 13.33° C | 75% | 1014.5 hPa | 0 mm | - | 59 W/m² | - |
| 1777895476 | 13.33° C | 75% | 1014.5 hPa | 0 mm | - | 78 W/m² | - |
| 1777895174 | 13.33° C | 75% | 1014.5 hPa | 0 mm | - | 75 W/m² | - |
| 1777894871 | 13.33° C | 75% | 1014.4 hPa | 0 mm | - | 53 W/m² | - |
| 1777894568 | 13.33° C | 74% | 1014.5 hPa | 0 mm | - | 48 W/m² | - |
| 1777894266 | 13.33° C | 74% | 1014.6 hPa | 0 mm | - | 51 W/m² | - |
| 1777893963 | 13.33° C | 74% | 1014.5 hPa | 0 mm | - | 54 W/m² | - |
| 1777893659 | 13.33° C | 74% | 1014.4 hPa | 0 mm | - | 55 W/m² | - |
| 1777893355 | 12.78° C | 75% | 1014.3 hPa | 0 mm | - | 43 W/m² | - |
| 1777893051 | 12.78° C | 75% | 1014.3 hPa | 0 mm | - | 30 W/m² | - |
| 1777892749 | 12.78° C | 75% | 1014.3 hPa | 0 mm | - | 27 W/m² | - |
| 1777892444 | 12.78° C | 75% | 1014.2 hPa | 0 mm | - | 23 W/m² | - |
| 1777892140 | 12.78° C | 75% | 1014.1 hPa | 0 mm | - | 23 W/m² | - |
| 1777891838 | 12.78° C | 75% | 1013.8 hPa | 0 mm | - | 20 W/m² | - |
| 1777891535 | 12.78° C | 75% | 1014.1 hPa | 0 mm | - | 17 W/m² | - |
| 1777891231 | 12.78° C | 75% | 1014.2 hPa | 0 mm | - | 15 W/m² | - |
| 1777890931 | 12.78° C | 75% | 1014.2 hPa | 0 mm | - | 10 W/m² | - |
| 1777890626 | 12.78° C | 74% | 1014.1 hPa | 0 mm | - | 5 W/m² | - |
| 1777890321 | 12.78° C | 75% | 1014.1 hPa | 0 mm | - | 3 W/m² | - |
| 1777890018 | 12.78° C | 75% | 1014.1 hPa | 0 mm | - | 1 W/m² | - |
| 1777889716 | 12.78° C | 74% | 1013.8 hPa | 0 mm | - | 0 W/m² | - |
| 1777889414 | 12.78° C | 74% | 1013.7 hPa | 0 mm | - | 0 W/m² | - |
| 1777889111 | 12.78° C | 74% | 1013.6 hPa | 0 mm | - | 0 W/m² | - |
| 1777888809 | 12.78° C | 74% | 1013.6 hPa | 0 mm | - | 0 W/m² | - |
* Rain latest hour (hover to see other rain measurements)
** Current wind speed in m/s (hover to see current wind gust speed)